Location: Unspecified
(0.0000°N, 0.0000°E)
Time: 17:30:58
(UTC+00:00)

PRISM - Pass Details

Date: 07 July 2022
Orbit: 554 x 578 km, 98.2° (Epoch: 10 August)

Event Time Altitude Azimuth Distance (km) Brightness Sun altitude
Rises 04:29:27 0° 16° (NNE) 2,722 ? -21.9°
Reaches altitude 10° 04:31:34 10° 19° (NNE) 1,833 ? -21.5°
Maximum altitude 04:35:31 68° 102° (ESE) 603 ? -20.6°
Enters shadow 04:37:43 25° 180° (S) 1,147 ? -20.1°
